Stündliche Wetter Aalst

Heute, 23 Juni, Mittwoch

Zeit Temperatur Niederschläge Wind Luftdruck Luftfeuchtigkeit
00:00 +12°C° 0 mm 4 m/S 763 mmHg 91%
01:00 +12°C° 0 mm 3 m/S 763 mmHg 91%
02:00 +11°C° 0 mm 3 m/S 763 mmHg 91%
03:00 +11°C° 0 mm 3 m/S 763 mmHg 91%
04:00 +11°C° 0 mm 3 m/S 763 mmHg 91%
05:00 +11°C° 0 mm 3 m/S 763 mmHg 91%
06:00 +11°C° 0 mm 3 m/S 764 mmHg 91%
07:00 +12°C° 0 mm 3 m/S 764 mmHg 88%
08:00 +12°C° 0 mm 3 m/S 764 mmHg 86%
09:00 +13°C° 0 mm 3 m/S 764 mmHg 84%
10:00 +13°C° 0 mm 3 m/S 764 mmHg 80%
11:00 +14°C° 0 mm 3 m/S 764 mmHg 77%
12:00 +14°C° 0 mm 3 m/S 764 mmHg 74%
13:00 +16°C° 0 mm 3 m/S 764 mmHg 72%
14:00 +17°C° 0 mm 3 m/S 764 mmHg 69%
15:00 +17°C° 0 mm 3 m/S 764 mmHg 67%
16:00 +17°C° 0 mm 3 m/S 764 mmHg 69%
17:00 +17°C° 0 mm 3 m/S 764 mmHg 71%
18:00 +17°C° 0 mm 3 m/S 764 mmHg 73%
19:00 +16°C° 0 mm 3 m/S 764 mmHg 76%
20:00 +14°C° 0 mm 3 m/S 764 mmHg 80%
21:00 +13°C° 0 mm 3 m/S 765 mmHg 84%
22:00 +12°C° 0 mm 3 m/S 765 mmHg 86%
23:00 +13°C° 0 mm 2 m/S 765 mmHg 87%

Morgen, 24 Juni, Donnerstag

Zeit Temperatur Niederschläge Wind Luftdruck Luftfeuchtigkeit
00:00 +12°C° 0 mm 2 m/S 764 mmHg 89%
01:00 +12°C° 0 mm 2 m/S 764 mmHg 89%
02:00 +12°C° 0 mm 2 m/S 764 mmHg 89%
03:00 +12°C° 0 mm 2 m/S 764 mmHg 90%
04:00 +12°C° 0 mm 2 m/S 764 mmHg 88%
05:00 +13°C° 0 mm 2 m/S 764 mmHg 85%
06:00 +14°C° 0 mm 2 m/S 764 mmHg 83%
07:00 +15°C° 0 mm 2 m/S 764 mmHg 78%
08:00 +16°C° 0 mm 2 m/S 764 mmHg 74%
09:00 +17°C° 0 mm 2 m/S 764 mmHg 69%
10:00 +18°C° 0 mm 2 m/S 764 mmHg 66%
11:00 +19°C° 0 mm 2 m/S 764 mmHg 63%
12:00 +19°C° 0 mm 2 m/S 764 mmHg 60%
13:00 +20°C° 0 mm 2 m/S 763 mmHg 59%
14:00 +20°C° 0 mm 3 m/S 763 mmHg 58%
15:00 +20°C° 0 mm 3 m/S 763 mmHg 57%
16:00 +19°C° 0 mm 3 m/S 763 mmHg 58%
17:00 +19°C° 0 mm 3 m/S 763 mmHg 60%
18:00 +18°C° 0 mm 3 m/S 763 mmHg 61%
19:00 +16°C° 0 mm 3 m/S 763 mmHg 64%
20:00 +13°C° 0 mm 3 m/S 764 mmHg 66%
21:00 +12°C° 0 mm 2 m/S 764 mmHg 69%
22:00 +10°C° 0 mm 2 m/S 764 mmHg 69%
23:00 +10°C° 0 mm 2 m/S 764 mmHg 69%

übermorgen, 25 Juni, Freitag

Zeit Temperatur Niederschläge Wind Luftdruck Luftfeuchtigkeit
00:00 +10°C° 0 mm 1 m/S 764 mmHg 69%
01:00 +9°C° 0 mm 2 m/S 763 mmHg 72%
02:00 +9°C° 0 mm 2 m/S 763 mmHg 75%
03:00 +9°C° 0 mm 2 m/S 763 mmHg 77%
04:00 +10°C° 0 mm 3 m/S 763 mmHg 79%
05:00 +12°C° 0 mm 3 m/S 763 mmHg 81%
06:00 +13°C° 0 mm 4 m/S 763 mmHg 83%
07:00 +14°C° 0 mm 4 m/S 762 mmHg 80%
08:00 +15°C° 0 mm 4 m/S 762 mmHg 77%
09:00 +18°C° 0 mm 4 m/S 762 mmHg 74%
10:00 +18°C° 0 mm 4 m/S 762 mmHg 74%
11:00 +18°C° 0 mm 4 m/S 762 mmHg 75%
12:00 +18°C° 0 mm 4 m/S 762 mmHg 75%
13:00 +18°C° 0.1 mm 4 m/S 762 mmHg 78%
14:00 +17°C° 0.1 mm 4 m/S 762 mmHg 81%
15:00 +17°C° 0.1 mm 4 m/S 762 mmHg 84%
16:00 +17°C° 0.1 mm 3 m/S 762 mmHg 86%
17:00 +16°C° 0.1 mm 3 m/S 762 mmHg 88%
18:00 +16°C° 0.1 mm 2 m/S 762 mmHg 91%
19:00 +15°C° 0 mm 2 m/S 762 mmHg 91%
20:00 +15°C° 0 mm 2 m/S 762 mmHg 91%
21:00 +15°C° 0 mm 1 m/S 762 mmHg 92%
22:00 +14°C° 0 mm 1 m/S 762 mmHg 92%
23:00 +14°C° 0 mm 1 m/S 762 mmHg 93%

26 Juni, Samstag

Zeit Temperatur Niederschläge Wind Luftdruck Luftfeuchtigkeit
00:00 +14°C° 0 mm 2 m/S 762 mmHg 93%
01:00 +14°C° 0 mm 1 m/S 762 mmHg 94%
02:00 +14°C° 0 mm 1 m/S 762 mmHg 94%
03:00 +14°C° 0 mm 1 m/S 762 mmHg 94%
04:00 +15°C° 0 mm 1 m/S 762 mmHg 93%
05:00 +15°C° 0 mm 1 m/S 762 mmHg 92%
06:00 +15°C° 0 mm 1 m/S 762 mmHg 91%
07:00 +16°C° 0 mm 1 m/S 762 mmHg 88%
08:00 +18°C° 0 mm 1 m/S 762 mmHg 86%
09:00 +18°C° 0 mm 1 m/S 762 mmHg 83%
10:00 +19°C° 0 mm 1 m/S 762 mmHg 78%
11:00 +21°C° 0 mm 1 m/S 762 mmHg 72%
12:00 +22°C° 0 mm 1 m/S 762 mmHg 67%
13:00 +22°C° 0.2 mm 1 m/S 761 mmHg 67%
14:00 +23°C° 0.2 mm 1 m/S 761 mmHg 67%
15:00 +23°C° 0.2 mm 2 m/S 761 mmHg 67%
16:00 +21°C° 0.5 mm 2 m/S 761 mmHg 72%
17:00 +20°C° 0.5 mm 2 m/S 761 mmHg 77%
18:00 +19°C° 0.5 mm 2 m/S 761 mmHg 82%
19:00 +19°C° 0.2 mm 2 m/S 761 mmHg 84%
20:00 +18°C° 0.2 mm 2 m/S 761 mmHg 86%
21:00 +17°C° 0.2 mm 2 m/S 761 mmHg 89%
22:00 +17°C° 0 mm 2 m/S 760 mmHg 90%
23:00 +17°C° 0 mm 2 m/S 760 mmHg 92%

27 Juni, Sonntag

Zeit Temperatur Niederschläge Wind Luftdruck Luftfeuchtigkeit
00:00 +16°C° 0 mm 2 m/S 760 mmHg 93%
01:00 +16°C° 0 mm 2 m/S 760 mmHg 93%
02:00 +15°C° 0 mm 2 m/S 759 mmHg 93%
03:00 +15°C° 0 mm 2 m/S 759 mmHg 93%
04:00 +16°C° 0 mm 2 m/S 759 mmHg 90%
05:00 +17°C° 0 mm 2 m/S 759 mmHg 88%
06:00 +18°C° 0 mm 2 m/S 759 mmHg 85%
07:00 +19°C° 0.1 mm 2 m/S 759 mmHg 83%
08:00 +20°C° 0.1 mm 2 m/S 759 mmHg 80%
09:00 +21°C° 0.1 mm 2 m/S 759 mmHg 77%
10:00 +20°C° 0.1 mm 2 m/S 759 mmHg 80%
11:00 +21°C° 0.1 mm 1 m/S 759 mmHg 82%
12:00 +21°C° 0.1 mm 1 m/S 759 mmHg 85%
13:00 +20°C° 0.4 mm 1 m/S 759 mmHg 88%
14:00 +20°C° 0.4 mm 1 m/S 759 mmHg 90%
15:00 +20°C° 0.4 mm 1 m/S 759 mmHg 93%
16:00 +20°C° 0.2 mm 1 m/S 759 mmHg 92%
17:00 +20°C° 0.2 mm 1 m/S 759 mmHg 92%
18:00 +20°C° 0.2 mm 1 m/S 759 mmHg 91%
19:00 +19°C° 0.1 mm 1 m/S 759 mmHg 93%
20:00 +19°C° 0.1 mm 1 m/S 759 mmHg 94%
21:00 +18°C° 0.1 mm 1 m/S 759 mmHg 95%
22:00 +18°C° 0 mm 1 m/S 760 mmHg 95%
23:00 +18°C° 0 mm 1 m/S 760 mmHg 95%

28 Juni, Montag

Zeit Temperatur Niederschläge Wind Luftdruck Luftfeuchtigkeit
00:00 +17°C° 0 mm 2 m/S 760 mmHg 94%
01:00 +16°C° 0 mm 2 m/S 760 mmHg 94%
02:00 +16°C° 0 mm 2 m/S 760 mmHg 94%
03:00 +16°C° 0 mm 2 m/S 760 mmHg 94%
04:00 +17°C° 0 mm 2 m/S 760 mmHg 94%
05:00 +17°C° 0 mm 2 m/S 760 mmHg 93%
06:00 +17°C° 0 mm 2 m/S 760 mmHg 92%
07:00 +18°C° 0.1 mm 2 m/S 761 mmHg 90%
08:00 +18°C° 0.1 mm 3 m/S 761 mmHg 87%
09:00 +19°C° 0.1 mm 3 m/S 761 mmHg 85%
10:00 +19°C° 0.1 mm 3 m/S 761 mmHg 80%
11:00 +20°C° 0.1 mm 3 m/S 761 mmHg 74%
12:00 +20°C° 0.1 mm 3 m/S 761 mmHg 69%
13:00 +21°C° 0 mm 3 m/S 761 mmHg 67%
14:00 +21°C° 0 mm 3 m/S 761 mmHg 64%
15:00 +22°C° 0 mm 3 m/S 762 mmHg 62%
16:00 +21°C° 0 mm 3 m/S 761 mmHg 65%
17:00 +21°C° 0 mm 2 m/S 761 mmHg 69%
18:00 +20°C° 0 mm 2 m/S 761 mmHg 72%
19:00 +19°C° 0 mm 2 m/S 761 mmHg 76%
20:00 +18°C° 0 mm 2 m/S 761 mmHg 81%
21:00 +18°C° 0 mm 1 m/S 762 mmHg 85%
22:00 +16°C° 0 mm 1 m/S 761 mmHg 87%
23:00 +16°C° 0 mm 1 m/S 761 mmHg 89%
Mehr zeigen

Wir brauchen deine Erlaubnis

Meteoprog und unser Service Anbieter werden persönliche Daten aufbewahren, so wie Cookies, Geräte Bezeichnung oder ähnliche Technologien von deinem Gerät und Prozess, so wie Persönliche Daten Inhalte und Werbungen, genauso wie social Media und den Verkehr zu analysieren.

  • Aufbewahrung und/oder Zugang zu deiner Geräte Informationen.

    Cookies, Geräte Bezeichnung oder andere Informationen, können aufbewahrt oder Zugang zu deinem Gerät erhalten, für den Grund, der oben angegeben wird.

  • Personalisierte Werbung und Inhalte, Messungen, Einblick in das Publikum und Produkt Entwicklung.

    Werbungen und Inhalte können personalisiert werden, basierend auf ein Profil. Mehr Daten können besser personalisierte Werbungen und Inhalte hinzufügen. Werbung und Inhalte können gezeigt und gemessen werden. Einblicke über das Publikum, welche die Werbung gesehen haben und den Inhalt, können abgeleitet werden. So wie Daten können genutzt werden, um es zu verbessern oder die Benutzer Erfahrung zu verbessern das System und die Software.

Wenn du “Ich stimme zu” klickst, erlaubst du uns, die Cookies zu benutzen die Geräte Bezeichnung, den Web oder ähnliche Technologien zu benutzen. Deine Settings, können in deinem Gerät bei deinem Browser geändert werden.

Für den bestimmten Zweck, berechtigten Interessen beruhen darauf, mehr als auf den Inhalt. Du kannst mehr darüber in unseren Privaten und Cookie Politik lesen.